This is the latest recevied weather packets stored in our database for station/object W5ALL-WX. If no packets are shown the sender has not sent any weather packets the latest 1 day(s).
| Time | Temp. | Humidity | Pressure | Rain* | Wind** | Luminosity | Snow |
|---|---|---|---|---|---|---|---|
| 1778021231 | 21.67° C | 34% | 1010.1 hPa | 0 mm | 5.36 m/s, 219° | - | - |
| 1778020931 | 21.67° C | 34% | 1010.1 hPa | 0 mm | 5.36 m/s, 156° | - | - |
| 1778020631 | 21.67° C | 34% | 1010 hPa | 0 mm | 4.47 m/s, 229° | - | - |
| 1778020331 | 21.11° C | 35% | 1010.3 hPa | 0 mm | 4.02 m/s, 201° | - | - |
| 1778020031 | 21.11° C | 35% | 1010.4 hPa | 0 mm | 2.68 m/s, 197° | - | - |
| 1778019731 | 21.11° C | 35% | 1010.4 hPa | 0 mm | 4.92 m/s, 219° | - | - |
| 1778019431 | 21.11° C | 35% | 1010.5 hPa | 0 mm | 4.02 m/s, 217° | - | - |
| 1778019131 | 21.11° C | 35% | 1010.6 hPa | 0 mm | 5.36 m/s, 204° | - | - |
| 1778018831 | 21.11° C | 35% | 1010.8 hPa | 0 mm | 4.92 m/s, 201° | - | - |
| 1778018531 | 21.11° C | 35% | 1010.8 hPa | 0 mm | 5.36 m/s, 204° | - | - |
| 1778018231 | 21.11° C | 35% | 1011 hPa | 0 mm | 4.47 m/s, 240° | - | - |
| 1778017931 | 21.67° C | 35% | 1011 hPa | 0 mm | 1.34 m/s, 238° | - | - |
| 1778017631 | 21.67° C | 35% | 1011 hPa | 0 mm | 1.79 m/s, 239° | - | - |
| 1778017331 | 21.67° C | 34% | 1011.1 hPa | 0 mm | 3.58 m/s, 243° | - | - |
| 1778017031 | 21.67° C | 36% | 1011.1 hPa | 0 mm | 1.34 m/s, 195° | - | - |
| 1778016731 | 21.11° C | 35% | 1011.2 hPa | 0 mm | 3.58 m/s, 184° | - | - |
| 1778016431 | 21.11° C | 36% | 1011.3 hPa | 0 mm | 4.47 m/s, 156° | - | - |
| 1778016131 | 21.11° C | 37% | 1011.4 hPa | 0 mm | 3.13 m/s, 226° | - | - |
| 1778015830 | 21.11° C | 35% | 1011.5 hPa | 0 mm | 5.36 m/s, 160° | - | - |
| 1778015531 | 21.11° C | 37% | 1011.7 hPa | 0 mm | 1.79 m/s, 210° | - | - |
| 1778015231 | 21.11° C | 37% | 1011.8 hPa | 0 mm | 3.13 m/s, 215° | - | - |
| 1778014930 | 21.11° C | 38% | 1011.9 hPa | 0 mm | 3.58 m/s, 172° | - | - |
| 1778014630 | 21.11° C | 38% | 1012 hPa | 0 mm | 4.02 m/s, 219° | - | - |
| 1778014330 | 20.56° C | 39% | 1012.1 hPa | 0 mm | 1.79 m/s, 208° | - | - |
| 1778014030 | 20.56° C | 40% | 1012.2 hPa | 0 mm | 4.02 m/s, 197° | - | - |
* Rain latest hour (hover to see other rain measurements)
** Current wind speed in m/s (hover to see current wind gust speed)